Year,Month,Day,Hour,Minute,Value (Times are PST for temperature in C)
2008,09,30,00,00,13.50
2008,09,30,00,01,13.50
2008,09,30,00,02,13.50
2008,09,30,00,03,13.50
2008,09,30,00,04,13.50
2008,09,30,00,05,13.50
2008,09,30,00,06,13.60
2008,09,30,00,07,13.60
2008,09,30,00,08,13.50
2008,09,30,00,09,13.50
2008,09,30,00,10,13.50
2008,09,30,00,11,13.50
2008,09,30,00,12,13.50
2008,09,30,00,13,13.50
2008,09,30,00,14,13.40
2008,09,30,00,15,13.40
2008,09,30,00,16,13.40
2008,09,30,00,17,13.30
2008,09,30,00,18,13.30
2008,09,30,00,19,13.20
2008,09,30,00,20,13.20
2008,09,30,00,21,13.20
2008,09,30,00,22,13.10
2008,09,30,00,23,13.10
2008,09,30,00,24,13.10
2008,09,30,00,25,13.00
2008,09,30,00,26,13.00
2008,09,30,00,27,12.90
2008,09,30,00,28,12.90
2008,09,30,00,29,12.90
2008,09,30,00,30,12.90
2008,09,30,00,31,12.80
2008,09,30,00,32,12.80
2008,09,30,00,33,12.80
2008,09,30,00,34,12.80
2008,09,30,00,35,12.80
2008,09,30,00,36,12.70
2008,09,30,00,37,12.70
2008,09,30,00,38,12.70
2008,09,30,00,39,12.70
2008,09,30,00,40,12.70
2008,09,30,00,41,12.70
2008,09,30,00,42,12.70
2008,09,30,00,43,12.70
2008,09,30,00,44,12.80
2008,09,30,00,45,12.80
2008,09,30,00,46,12.90
2008,09,30,00,47,13.00
2008,09,30,00,48,13.10
2008,09,30,00,49,13.10
2008,09,30,00,50,13.10
2008,09,30,00,51,13.20
2008,09,30,00,52,13.20
2008,09,30,00,53,13.20
2008,09,30,00,54,13.20
2008,09,30,00,55,13.20
2008,09,30,00,56,13.20
2008,09,30,00,57,13.20
2008,09,30,00,58,13.20
2008,09,30,00,59,13.20
2008,09,30,01,00,13.20
2008,09,30,01,01,13.10
2008,09,30,01,02,13.10
2008,09,30,01,03,13.10
2008,09,30,01,04,13.10
2008,09,30,01,05,13.10
2008,09,30,01,06,13.10
2008,09,30,01,07,13.10
2008,09,30,01,08,13.10
2008,09,30,01,09,13.00
2008,09,30,01,10,13.00
2008,09,30,01,11,13.00
2008,09,30,01,12,12.90
2008,09,30,01,13,12.90
2008,09,30,01,14,12.90
2008,09,30,01,15,12.80
2008,09,30,01,16,12.80
2008,09,30,01,17,12.70
2008,09,30,01,18,12.60
2008,09,30,01,19,12.50
2008,09,30,01,20,12.50
2008,09,30,01,21,12.40
2008,09,30,01,22,12.30
2008,09,30,01,23,12.30
2008,09,30,01,24,12.20
2008,09,30,01,25,12.10
2008,09,30,01,26,12.10
2008,09,30,01,27,12.00
2008,09,30,01,28,11.90
2008,09,30,01,29,11.90
2008,09,30,01,30,11.90
2008,09,30,01,31,11.80
2008,09,30,01,32,11.80
2008,09,30,01,33,11.90
2008,09,30,01,34,12.00
2008,09,30,01,35,12.10
2008,09,30,01,36,12.20
2008,09,30,01,37,12.30
2008,09,30,01,38,12.40
2008,09,30,01,39,12.50
2008,09,30,01,40,12.50
2008,09,30,01,41,12.60
2008,09,30,01,42,12.60
2008,09,30,01,43,12.70
2008,09,30,01,44,12.70
2008,09,30,01,45,12.70
2008,09,30,01,46,12.70
2008,09,30,01,47,12.70
2008,09,30,01,48,12.70
2008,09,30,01,49,12.70
2008,09,30,01,50,12.70
2008,09,30,01,51,12.70
2008,09,30,01,52,12.70
2008,09,30,01,53,12.70
2008,09,30,01,54,12.70
2008,09,30,01,55,12.70
2008,09,30,01,56,12.70
2008,09,30,01,57,12.60
2008,09,30,01,58,12.60
2008,09,30,01,59,12.60
2008,09,30,02,00,12.60
2008,09,30,02,01,12.60
2008,09,30,02,02,12.60
2008,09,30,02,03,12.60
2008,09,30,02,04,12.60
2008,09,30,02,05,12.50
2008,09,30,02,06,12.50
2008,09,30,02,07,12.30
2008,09,30,02,08,12.20
2008,09,30,02,09,12.00
2008,09,30,02,10,11.90
2008,09,30,02,11,11.80
2008,09,30,02,12,11.70
2008,09,30,02,13,11.60
2008,09,30,02,14,11.60
2008,09,30,02,15,11.50
2008,09,30,02,16,11.50
2008,09,30,02,17,11.50
2008,09,30,02,18,11.50
2008,09,30,02,19,11.50
2008,09,30,02,20,11.50
2008,09,30,02,21,11.60
2008,09,30,02,22,11.60
2008,09,30,02,23,11.60
2008,09,30,02,24,11.60
2008,09,30,02,25,11.60
2008,09,30,02,26,11.70
2008,09,30,02,27,11.70
2008,09,30,02,28,11.70
2008,09,30,02,29,11.80
2008,09,30,02,30,11.90
2008,09,30,02,31,11.90
2008,09,30,02,32,12.00
2008,09,30,02,33,12.00
2008,09,30,02,34,12.10
2008,09,30,02,35,12.10
2008,09,30,02,36,12.10
2008,09,30,02,37,12.10
2008,09,30,02,38,12.00
2008,09,30,02,39,12.00
2008,09,30,02,40,12.00
2008,09,30,02,41,12.00
2008,09,30,02,42,11.90
2008,09,30,02,43,11.90
2008,09,30,02,44,11.90
2008,09,30,02,45,11.90
2008,09,30,02,46,11.80
2008,09,30,02,47,11.80
2008,09,30,02,48,11.80
2008,09,30,02,49,11.80
2008,09,30,02,50,11.80
2008,09,30,02,51,11.80
2008,09,30,02,52,11.80
2008,09,30,02,53,11.80
2008,09,30,02,54,11.90
2008,09,30,02,55,11.90
2008,09,30,02,56,11.90
2008,09,30,02,57,11.80
2008,09,30,02,58,11.80
2008,09,30,02,59,11.80
2008,09,30,03,00,11.70
2008,09,30,03,01,11.60
2008,09,30,03,02,11.60
2008,09,30,03,03,11.60
2008,09,30,03,04,11.50
2008,09,30,03,05,11.50
2008,09,30,03,06,11.50
2008,09,30,03,07,11.40
2008,09,30,03,08,11.50
2008,09,30,03,09,11.50
2008,09,30,03,10,11.60
2008,09,30,03,11,11.70
2008,09,30,03,12,11.80
2008,09,30,03,13,11.90
2008,09,30,03,14,12.00
2008,09,30,03,15,12.00
2008,09,30,03,16,12.10
2008,09,30,03,17,12.20
2008,09,30,03,18,12.20
2008,09,30,03,19,12.20
2008,09,30,03,20,12.10
2008,09,30,03,21,12.10
2008,09,30,03,22,12.10
2008,09,30,03,23,12.00
2008,09,30,03,24,12.00
2008,09,30,03,25,11.90
2008,09,30,03,26,11.90
2008,09,30,03,27,11.90
2008,09,30,03,28,11.90
2008,09,30,03,29,11.90
2008,09,30,03,30,12.00
2008,09,30,03,31,12.00
2008,09,30,03,32,12.00
2008,09,30,03,33,12.00
2008,09,30,03,34,11.90
2008,09,30,03,35,11.90
2008,09,30,03,36,11.80
2008,09,30,03,37,11.80
2008,09,30,03,38,11.80
2008,09,30,03,39,11.70
2008,09,30,03,40,11.70
2008,09,30,03,41,11.70
2008,09,30,03,42,11.60
2008,09,30,03,43,11.60
2008,09,30,03,44,11.70
2008,09,30,03,45,11.70
2008,09,30,03,46,11.70
2008,09,30,03,47,11.70
2008,09,30,03,48,11.70
2008,09,30,03,49,11.80
2008,09,30,03,50,11.80
2008,09,30,03,51,11.70
2008,09,30,03,52,11.70
2008,09,30,03,53,11.60
2008,09,30,03,54,11.60
2008,09,30,03,55,11.50
2008,09,30,03,56,11.40
2008,09,30,03,57,11.40
2008,09,30,03,58,11.40
2008,09,30,03,59,11.40
2008,09,30,04,00,11.40
2008,09,30,04,01,11.40
2008,09,30,04,02,11.50
2008,09,30,04,03,11.70
2008,09,30,04,04,11.80
2008,09,30,04,05,11.80
2008,09,30,04,06,11.90
2008,09,30,04,07,11.90
2008,09,30,04,08,11.90
2008,09,30,04,09,11.90
2008,09,30,04,10,11.90
2008,09,30,04,11,11.80
2008,09,30,04,12,11.80
2008,09,30,04,13,11.70
2008,09,30,04,14,11.70
2008,09,30,04,15,11.60
2008,09,30,04,16,11.60
2008,09,30,04,17,11.60
2008,09,30,04,18,11.50
2008,09,30,04,19,11.50
2008,09,30,04,20,11.50
2008,09,30,04,21,11.50
2008,09,30,04,22,11.50
2008,09,30,04,23,11.50
2008,09,30,04,24,11.50
2008,09,30,04,25,11.50
2008,09,30,04,26,11.50
2008,09,30,04,27,11.60
2008,09,30,04,28,11.60
2008,09,30,04,29,11.60
2008,09,30,04,30,11.60
2008,09,30,04,31,11.60
2008,09,30,04,32,11.60
2008,09,30,04,33,11.60
2008,09,30,04,34,11.60
2008,09,30,04,35,11.60
2008,09,30,04,36,11.60
2008,09,30,04,37,11.60
2008,09,30,04,38,11.70
2008,09,30,04,39,11.70
2008,09,30,04,40,11.80
2008,09,30,04,41,11.80
2008,09,30,04,42,11.90
2008,09,30,04,43,11.90
2008,09,30,04,44,11.90
2008,09,30,04,45,11.90
2008,09,30,04,46,11.90
2008,09,30,04,47,11.90
2008,09,30,04,48,11.90
2008,09,30,04,49,11.80
2008,09,30,04,50,11.80
2008,09,30,04,51,11.80
2008,09,30,04,52,11.80
2008,09,30,04,53,11.80
2008,09,30,04,54,11.70
2008,09,30,04,55,11.70
2008,09,30,04,56,11.70
2008,09,30,04,57,11.60
2008,09,30,04,58,11.60
2008,09,30,04,59,11.60
2008,09,30,05,00,11.60
2008,09,30,05,01,11.50
2008,09,30,05,02,11.50
2008,09,30,05,03,11.50
2008,09,30,05,04,11.50
2008,09,30,05,05,11.60
2008,09,30,05,06,11.60
2008,09,30,05,07,11.60
2008,09,30,05,08,11.60
2008,09,30,05,09,11.60
2008,09,30,05,10,11.60
2008,09,30,05,11,11.60
2008,09,30,05,12,11.60
2008,09,30,05,13,11.60
2008,09,30,05,14,11.50
2008,09,30,05,15,11.50
2008,09,30,05,16,11.50
2008,09,30,05,17,11.50
2008,09,30,05,18,11.50
2008,09,30,05,19,11.50
2008,09,30,05,20,11.50
2008,09,30,05,21,11.60
2008,09,30,05,22,11.60
2008,09,30,05,23,11.60
2008,09,30,05,24,11.70
2008,09,30,05,25,11.80
2008,09,30,05,26,11.80
2008,09,30,05,27,11.80
2008,09,30,05,28,11.80
2008,09,30,05,29,11.80
2008,09,30,05,30,11.80
2008,09,30,05,31,11.80
2008,09,30,05,32,11.80
2008,09,30,05,33,11.70
2008,09,30,05,34,11.60
2008,09,30,05,35,11.60
2008,09,30,05,36,11.50
2008,09,30,05,37,11.50
2008,09,30,05,38,11.50
2008,09,30,05,39,11.50
2008,09,30,05,40,11.40
2008,09,30,05,41,11.40
2008,09,30,05,42,11.40
2008,09,30,05,43,11.40
2008,09,30,05,44,11.40
2008,09,30,05,45,11.40
2008,09,30,05,46,11.40
2008,09,30,05,47,11.40
2008,09,30,05,48,11.40
2008,09,30,05,49,11.40
2008,09,30,05,50,11.40
2008,09,30,05,51,11.40
2008,09,30,05,52,11.40
2008,09,30,05,53,11.40
2008,09,30,05,54,11.40
2008,09,30,05,55,11.40
2008,09,30,05,56,11.40
2008,09,30,05,57,11.40
2008,09,30,05,58,11.30
2008,09,30,05,59,11.30
2008,09,30,06,00,11.30
2008,09,30,06,01,11.30
2008,09,30,06,02,11.20
2008,09,30,06,03,11.20
2008,09,30,06,04,11.20
2008,09,30,06,05,11.10
2008,09,30,06,06,11.10
2008,09,30,06,07,11.10
2008,09,30,06,08,11.10
2008,09,30,06,09,11.10
2008,09,30,06,10,11.10
2008,09,30,06,11,11.00
2008,09,30,06,12,11.00
2008,09,30,06,13,11.00
2008,09,30,06,14,10.90
2008,09,30,06,15,10.90
2008,09,30,06,16,10.90
2008,09,30,06,17,10.90
2008,09,30,06,18,10.90
2008,09,30,06,19,10.90
2008,09,30,06,20,10.90
2008,09,30,06,21,10.90
2008,09,30,06,22,10.90
2008,09,30,06,23,10.90
2008,09,30,06,24,10.80
2008,09,30,06,25,10.80
2008,09,30,06,26,10.80
2008,09,30,06,27,10.80
2008,09,30,06,28,10.80
2008,09,30,06,29,10.80
2008,09,30,06,30,10.80
2008,09,30,06,31,10.80
2008,09,30,06,32,10.80
2008,09,30,06,33,10.80
2008,09,30,06,34,10.80
2008,09,30,06,35,10.90
2008,09,30,06,36,10.90
2008,09,30,06,37,10.90
2008,09,30,06,38,10.90
2008,09,30,06,39,10.80
2008,09,30,06,40,10.80
2008,09,30,06,41,10.80
2008,09,30,06,42,10.80
2008,09,30,06,43,10.70
2008,09,30,06,44,10.70
2008,09,30,06,45,10.70
2008,09,30,06,46,10.70
2008,09,30,06,47,10.60
2008,09,30,06,48,10.60
2008,09,30,06,49,10.60
2008,09,30,06,50,10.60
2008,09,30,06,51,10.60
2008,09,30,06,52,10.60
2008,09,30,06,53,10.60
2008,09,30,06,54,10.60
2008,09,30,06,55,10.50
2008,09,30,06,56,10.50
2008,09,30,06,57,10.40
2008,09,30,06,58,10.40
2008,09,30,06,59,10.40
2008,09,30,07,00,10.40
2008,09,30,07,01,10.30
2008,09,30,07,02,10.30
2008,09,30,07,03,10.30
2008,09,30,07,04,10.30
2008,09,30,07,05,10.30
2008,09,30,07,06,10.30
2008,09,30,07,07,10.30
2008,09,30,07,08,10.30
2008,09,30,07,09,10.30
2008,09,30,07,10,10.30
2008,09,30,07,11,10.30
2008,09,30,07,12,10.30
2008,09,30,07,13,10.30
2008,09,30,07,14,10.20
2008,09,30,07,15,10.20
2008,09,30,07,16,10.20
2008,09,30,07,17,10.10
2008,09,30,07,18,10.10
2008,09,30,07,19,10.10
2008,09,30,07,20,10.00
2008,09,30,07,21,10.00
2008,09,30,07,22,10.00
2008,09,30,07,23,9.90
2008,09,30,07,24,9.90
2008,09,30,07,25,9.90
2008,09,30,07,26,9.90
2008,09,30,07,27,9.90
2008,09,30,07,28,9.90
2008,09,30,07,29,9.90
2008,09,30,07,30,9.90
2008,09,30,07,31,9.90
2008,09,30,07,32,9.90
2008,09,30,07,33,9.90
2008,09,30,07,34,10.00
2008,09,30,07,35,10.00
2008,09,30,07,36,10.00
2008,09,30,07,37,10.00
2008,09,30,07,38,10.10
2008,09,30,07,39,10.00
2008,09,30,07,40,10.00
2008,09,30,07,41,10.10
2008,09,30,07,42,10.10
2008,09,30,07,43,10.10
2008,09,30,07,44,10.10
2008,09,30,07,45,10.10
2008,09,30,07,46,10.10
2008,09,30,07,47,10.10
2008,09,30,07,48,10.10
2008,09,30,07,49,10.10
2008,09,30,07,50,10.10
2008,09,30,07,51,10.20
2008,09,30,07,52,10.20
2008,09,30,07,53,10.30
2008,09,30,07,54,10.30
2008,09,30,07,55,10.40
2008,09,30,07,56,10.40
2008,09,30,07,57,10.40
2008,09,30,07,58,10.40
2008,09,30,07,59,10.40
2008,09,30,08,00,10.40
2008,09,30,08,01,10.40
2008,09,30,08,02,10.50
2008,09,30,08,03,10.50
2008,09,30,08,04,10.60
2008,09,30,08,05,10.70
2008,09,30,08,06,10.80
2008,09,30,08,07,10.90
2008,09,30,08,08,11.10
2008,09,30,08,09,11.20
2008,09,30,08,10,11.30
2008,09,30,08,11,11.40
2008,09,30,08,12,11.50
2008,09,30,08,13,11.50
2008,09,30,08,14,11.60
2008,09,30,08,15,11.70
2008,09,30,08,16,11.80
2008,09,30,08,17,11.90
2008,09,30,08,18,12.00
2008,09,30,08,19,12.10
2008,09,30,08,20,12.20
2008,09,30,08,21,12.30
2008,09,30,08,22,12.30
2008,09,30,08,23,12.40
2008,09,30,08,24,12.40
2008,09,30,08,25,12.50
2008,09,30,08,26,12.50
2008,09,30,08,27,12.50
2008,09,30,08,28,12.60
2008,09,30,08,29,12.60
2008,09,30,08,30,12.70
2008,09,30,08,31,12.80
2008,09,30,08,32,12.90
2008,09,30,08,33,13.00
2008,09,30,08,34,13.10
2008,09,30,08,35,13.10
2008,09,30,08,36,13.20
2008,09,30,08,37,13.30
2008,09,30,08,38,13.40
2008,09,30,08,39,13.40
2008,09,30,08,40,13.40
2008,09,30,08,41,13.30
2008,09,30,08,42,13.30
2008,09,30,08,43,13.30
2008,09,30,08,44,13.30
2008,09,30,08,45,13.30
2008,09,30,08,46,13.30
2008,09,30,08,47,13.40
2008,09,30,08,48,13.40
2008,09,30,08,49,13.50
2008,09,30,08,50,13.50
2008,09,30,08,51,13.60
2008,09,30,08,52,13.70
2008,09,30,08,53,13.80
2008,09,30,08,54,13.90
2008,09,30,08,55,14.00
2008,09,30,08,56,14.20
2008,09,30,08,57,14.30
2008,09,30,08,58,14.20
2008,09,30,08,59,14.20
2008,09,30,09,00,14.20
2008,09,30,09,01,14.30
2008,09,30,09,02,14.30
2008,09,30,09,03,14.40
2008,09,30,09,04,14.40
2008,09,30,09,05,14.40
2008,09,30,09,06,14.40
2008,09,30,09,07,14.40
2008,09,30,09,08,14.30
2008,09,30,09,09,14.40
2008,09,30,09,10,14.40
2008,09,30,09,11,14.50
2008,09,30,09,12,14.60
2008,09,30,09,13,14.70
2008,09,30,09,14,14.80
2008,09,30,09,15,15.00
2008,09,30,09,16,15.00
2008,09,30,09,17,15.00
2008,09,30,09,18,15.10
2008,09,30,09,19,15.20
2008,09,30,09,20,15.30
2008,09,30,09,21,15.30
2008,09,30,09,22,15.40
2008,09,30,09,23,15.50
2008,09,30,09,24,15.60
2008,09,30,09,25,15.70
2008,09,30,09,26,15.70
2008,09,30,09,27,15.70
2008,09,30,09,28,15.80
2008,09,30,09,29,15.80
2008,09,30,09,30,15.80
2008,09,30,09,31,15.90
2008,09,30,09,32,15.90
2008,09,30,09,33,16.00
2008,09,30,09,34,16.00
2008,09,30,09,35,16.00
2008,09,30,09,36,16.00
2008,09,30,09,37,16.00
2008,09,30,09,38,16.00
2008,09,30,09,39,16.00
2008,09,30,09,40,15.90
2008,09,30,09,41,16.00
2008,09,30,09,42,16.00
2008,09,30,09,43,15.90
2008,09,30,09,44,15.90
2008,09,30,09,45,16.00
2008,09,30,09,46,16.00
2008,09,30,09,47,15.90
2008,09,30,09,48,15.90
2008,09,30,09,49,15.90
2008,09,30,09,50,15.90
2008,09,30,09,51,15.90
2008,09,30,09,52,16.00
2008,09,30,09,53,16.00
2008,09,30,09,54,16.10
2008,09,30,09,55,16.10
2008,09,30,09,56,16.20
2008,09,30,09,57,16.30
2008,09,30,09,58,16.40
2008,09,30,09,59,16.50
2008,09,30,10,00,16.60
2008,09,30,10,01,16.70
2008,09,30,10,02,16.80
2008,09,30,10,03,17.00
2008,09,30,10,04,17.10
2008,09,30,10,05,17.30
2008,09,30,10,06,17.50
2008,09,30,10,07,17.60
2008,09,30,10,08,17.60
2008,09,30,10,09,17.70
2008,09,30,10,10,17.60
2008,09,30,10,11,17.60
2008,09,30,10,12,17.60
2008,09,30,10,13,17.60
2008,09,30,10,14,17.60
2008,09,30,10,15,17.60
2008,09,30,10,16,17.60
2008,09,30,10,17,17.70
2008,09,30,10,18,17.70
2008,09,30,10,19,17.70
2008,09,30,10,20,17.60
2008,09,30,10,21,17.60
2008,09,30,10,22,17.50
2008,09,30,10,23,17.50
2008,09,30,10,24,17.40
2008,09,30,10,25,17.30
2008,09,30,10,26,17.30
2008,09,30,10,27,17.20
2008,09,30,10,28,17.10
2008,09,30,10,29,17.00
2008,09,30,10,30,17.00
2008,09,30,10,31,17.00
2008,09,30,10,32,16.90
2008,09,30,10,33,16.80
2008,09,30,10,34,16.80
2008,09,30,10,35,16.80
2008,09,30,10,36,16.90
2008,09,30,10,37,16.90
2008,09,30,10,38,16.90
2008,09,30,10,39,17.00
2008,09,30,10,40,17.10
2008,09,30,10,41,17.20
2008,09,30,10,42,17.30
2008,09,30,10,43,17.40
2008,09,30,10,44,17.40
2008,09,30,10,45,17.50
2008,09,30,10,46,17.50
2008,09,30,10,47,17.50
2008,09,30,10,48,17.60
2008,09,30,10,49,17.60
2008,09,30,10,50,17.60
2008,09,30,10,51,17.60
2008,09,30,10,52,17.50
2008,09,30,10,53,17.50
2008,09,30,10,54,17.40
2008,09,30,10,55,17.20
2008,09,30,10,56,17.20
2008,09,30,10,57,17.10
2008,09,30,10,58,17.00
2008,09,30,10,59,17.00
2008,09,30,11,00,16.90
2008,09,30,11,01,16.90
2008,09,30,11,02,16.90
2008,09,30,11,03,16.90
2008,09,30,11,04,16.90
2008,09,30,11,05,16.90
2008,09,30,11,06,16.80
2008,09,30,11,07,16.80
2008,09,30,11,08,16.90
2008,09,30,11,09,16.90
2008,09,30,11,10,16.90
2008,09,30,11,11,16.80
2008,09,30,11,12,16.80
2008,09,30,11,13,16.70
2008,09,30,11,14,16.60
2008,09,30,11,15,16.60
2008,09,30,11,16,16.60
2008,09,30,11,17,16.50
2008,09,30,11,18,16.40
2008,09,30,11,19,16.40
2008,09,30,11,20,16.30
2008,09,30,11,21,16.30
2008,09,30,11,22,16.30
2008,09,30,11,23,16.30
2008,09,30,11,24,16.30
2008,09,30,11,25,16.30
2008,09,30,11,26,16.30
2008,09,30,11,27,16.20
2008,09,30,11,28,16.20
2008,09,30,11,29,16.20
2008,09,30,11,30,16.20
2008,09,30,11,31,16.20
2008,09,30,11,32,16.20
2008,09,30,11,33,16.20
2008,09,30,11,34,16.20
2008,09,30,11,35,16.30
2008,09,30,11,36,16.30
2008,09,30,11,37,16.30
2008,09,30,11,38,16.40
2008,09,30,11,39,16.60
2008,09,30,11,40,16.70
2008,09,30,11,41,16.70
2008,09,30,11,42,16.60
2008,09,30,11,43,16.50
2008,09,30,11,44,16.40
2008,09,30,11,45,16.30
2008,09,30,11,46,16.30
2008,09,30,11,47,16.30
2008,09,30,11,48,16.30
2008,09,30,11,49,16.30
2008,09,30,11,50,16.30
2008,09,30,11,51,16.30
2008,09,30,11,52,16.30
2008,09,30,11,53,16.30
2008,09,30,11,54,16.50
2008,09,30,11,55,16.60
2008,09,30,11,56,16.70
2008,09,30,11,57,16.80
2008,09,30,11,58,16.80
2008,09,30,11,59,17.00
2008,09,30,12,00,17.00
2008,09,30,12,01,17.00
2008,09,30,12,02,17.00
2008,09,30,12,03,16.90
2008,09,30,12,04,16.90
2008,09,30,12,05,16.90
2008,09,30,12,06,16.80
2008,09,30,12,07,16.80
2008,09,30,12,08,16.80
2008,09,30,12,09,16.80
2008,09,30,12,10,16.70
2008,09,30,12,11,16.70
2008,09,30,12,12,16.70
2008,09,30,12,13,16.60
2008,09,30,12,14,16.60
2008,09,30,12,15,16.60
2008,09,30,12,16,16.50
2008,09,30,12,17,16.50
2008,09,30,12,18,16.50
2008,09,30,12,19,16.50
2008,09,30,12,20,16.50
2008,09,30,12,21,16.40
2008,09,30,12,22,16.40
2008,09,30,12,23,16.50
2008,09,30,12,24,16.60
2008,09,30,12,25,16.80
2008,09,30,12,26,16.90
2008,09,30,12,27,17.10
2008,09,30,12,28,17.30
2008,09,30,12,29,17.40
2008,09,30,12,30,17.50
2008,09,30,12,31,17.70
2008,09,30,12,32,17.80
2008,09,30,12,33,17.80
2008,09,30,12,34,17.80
2008,09,30,12,35,17.80
2008,09,30,12,36,17.80
2008,09,30,12,37,17.80
2008,09,30,12,38,17.80
2008,09,30,12,39,17.80
2008,09,30,12,40,17.80
2008,09,30,12,41,17.80
2008,09,30,12,42,17.80
2008,09,30,12,43,17.80
2008,09,30,12,44,17.80
2008,09,30,12,45,17.70
2008,09,30,12,46,17.70
2008,09,30,12,47,17.70
2008,09,30,12,48,17.70
2008,09,30,12,49,17.60
2008,09,30,12,50,17.60
2008,09,30,12,51,17.60
2008,09,30,12,52,17.50
2008,09,30,12,53,17.40
2008,09,30,12,54,17.30
2008,09,30,12,55,17.20
2008,09,30,12,56,17.10
2008,09,30,12,57,17.10
2008,09,30,12,58,17.20
2008,09,30,12,59,17.20
2008,09,30,13,00,17.20
2008,09,30,13,01,17.30
2008,09,30,13,02,17.30
2008,09,30,13,03,17.40
2008,09,30,13,04,17.50
2008,09,30,13,05,17.60
2008,09,30,13,06,17.70
2008,09,30,13,07,17.70
2008,09,30,13,08,17.80
2008,09,30,13,09,17.90
2008,09,30,13,10,17.90
2008,09,30,13,11,18.00
2008,09,30,13,12,18.10
2008,09,30,13,13,18.20
2008,09,30,13,14,18.40
2008,09,30,13,15,18.50
2008,09,30,13,16,18.60
2008,09,30,13,17,18.50
2008,09,30,13,18,18.40
2008,09,30,13,19,18.30
2008,09,30,13,20,18.20
2008,09,30,13,21,18.10
2008,09,30,13,22,17.90
2008,09,30,13,23,17.70
2008,09,30,13,24,17.50
2008,09,30,13,25,17.40
2008,09,30,13,26,17.20
2008,09,30,13,27,17.10
2008,09,30,13,28,17.10
2008,09,30,13,29,17.10
2008,09,30,13,30,17.00
2008,09,30,13,31,17.00
2008,09,30,13,32,16.90
2008,09,30,13,33,16.90
2008,09,30,13,34,16.90
2008,09,30,13,35,16.90
2008,09,30,13,36,16.90
2008,09,30,13,37,16.90
2008,09,30,13,38,16.90
2008,09,30,13,39,16.90
2008,09,30,13,40,16.90
2008,09,30,13,41,16.90
2008,09,30,13,42,16.90
2008,09,30,13,43,16.90
2008,09,30,13,44,16.90
2008,09,30,13,45,16.90
2008,09,30,13,46,16.90
2008,09,30,13,47,17.00
2008,09,30,13,48,17.00
2008,09,30,13,49,17.00
2008,09,30,13,50,16.90
2008,09,30,13,51,16.90
2008,09,30,13,52,17.00
2008,09,30,13,53,17.00
2008,09,30,13,54,17.10
2008,09,30,13,55,17.20
2008,09,30,13,56,17.10
2008,09,30,13,57,17.10
2008,09,30,13,58,17.10
2008,09,30,13,59,17.10
2008,09,30,14,00,17.10
2008,09,30,14,01,17.20
2008,09,30,14,02,17.20
2008,09,30,14,03,17.20
2008,09,30,14,04,17.30
2008,09,30,14,05,17.40
2008,09,30,14,06,17.50
2008,09,30,14,07,17.60
2008,09,30,14,08,17.60
2008,09,30,14,09,17.60
2008,09,30,14,10,17.60
2008,09,30,14,11,17.60
2008,09,30,14,12,17.50
2008,09,30,14,13,17.40
2008,09,30,14,14,17.40
2008,09,30,14,15,17.40
2008,09,30,14,16,17.40
2008,09,30,14,17,17.40
2008,09,30,14,18,17.40
2008,09,30,14,19,17.40
2008,09,30,14,20,17.30
2008,09,30,14,21,17.30
2008,09,30,14,22,17.30
2008,09,30,14,23,17.30
2008,09,30,14,24,17.40
2008,09,30,14,25,17.40
2008,09,30,14,26,17.50
2008,09,30,14,27,17.50
2008,09,30,14,28,17.50
2008,09,30,14,29,17.50
2008,09,30,14,30,17.50
2008,09,30,14,31,17.50
2008,09,30,14,32,17.50
2008,09,30,14,33,17.50
2008,09,30,14,34,17.50
2008,09,30,14,35,17.40
2008,09,30,14,36,17.20
2008,09,30,14,37,17.10
2008,09,30,14,38,17.00
2008,09,30,14,39,16.90
2008,09,30,14,40,16.80
2008,09,30,14,41,16.80
2008,09,30,14,42,16.80
2008,09,30,14,43,16.80
2008,09,30,14,44,16.90
2008,09,30,14,45,17.00
2008,09,30,14,46,17.20
2008,09,30,14,47,17.20
2008,09,30,14,48,17.40
2008,09,30,14,49,17.40
2008,09,30,14,50,17.50
2008,09,30,14,51,17.60
2008,09,30,14,52,17.50
2008,09,30,14,53,17.50
2008,09,30,14,54,17.40
2008,09,30,14,55,17.30
2008,09,30,14,56,17.20
2008,09,30,14,57,17.10
2008,09,30,14,58,17.00
2008,09,30,14,59,17.00
2008,09,30,15,00,17.00
2008,09,30,15,01,17.00
2008,09,30,15,02,17.10
2008,09,30,15,03,17.20
2008,09,30,15,04,17.30
2008,09,30,15,05,17.40
2008,09,30,15,06,17.40
2008,09,30,15,07,17.50
2008,09,30,15,08,17.50
2008,09,30,15,09,17.50
2008,09,30,15,10,17.40
2008,09,30,15,11,17.30
2008,09,30,15,12,17.30
2008,09,30,15,13,17.30
2008,09,30,15,14,17.30
2008,09,30,15,15,17.30
2008,09,30,15,16,17.20
2008,09,30,15,17,17.10
2008,09,30,15,18,17.10
2008,09,30,15,19,17.10
2008,09,30,15,20,17.10
2008,09,30,15,21,17.10
2008,09,30,15,22,17.20
2008,09,30,15,23,17.10
2008,09,30,15,24,17.00
2008,09,30,15,25,16.90
2008,09,30,15,26,16.90
2008,09,30,15,27,16.90
2008,09,30,15,28,16.90
2008,09,30,15,29,17.00
2008,09,30,15,30,17.00
2008,09,30,15,31,17.10
2008,09,30,15,32,17.00
2008,09,30,15,33,17.00
2008,09,30,15,34,16.90
2008,09,30,15,35,16.80
2008,09,30,15,36,16.80
2008,09,30,15,37,16.70
2008,09,30,15,38,16.60
2008,09,30,15,39,16.60
2008,09,30,15,40,16.60
2008,09,30,15,41,16.60
2008,09,30,15,42,16.60
2008,09,30,15,43,16.50
2008,09,30,15,44,16.50
2008,09,30,15,45,16.40
2008,09,30,15,46,16.40
2008,09,30,15,47,16.40
2008,09,30,15,48,16.50
2008,09,30,15,49,16.50
2008,09,30,15,50,16.50
2008,09,30,15,51,16.50
2008,09,30,15,52,16.50
2008,09,30,15,53,16.40
2008,09,30,15,54,16.40
2008,09,30,15,55,16.40
2008,09,30,15,56,16.40
2008,09,30,15,57,16.30
2008,09,30,15,58,16.30
2008,09,30,15,59,16.20
2008,09,30,16,00,16.20
2008,09,30,16,01,16.10
2008,09,30,16,02,16.10
2008,09,30,16,03,16.10
2008,09,30,16,04,16.10
2008,09,30,16,05,16.10
2008,09,30,16,06,16.00
2008,09,30,16,07,16.00
2008,09,30,16,08,16.00
2008,09,30,16,09,16.00
2008,09,30,16,10,16.00
2008,09,30,16,11,16.00
2008,09,30,16,12,15.90
2008,09,30,16,13,15.90
2008,09,30,16,14,15.90
2008,09,30,16,15,15.90
2008,09,30,16,16,15.90
2008,09,30,16,17,15.90
2008,09,30,16,18,15.90
2008,09,30,16,19,15.90
2008,09,30,16,20,15.90
2008,09,30,16,21,15.80
2008,09,30,16,22,15.80
2008,09,30,16,23,15.80
2008,09,30,16,24,15.80
2008,09,30,16,25,15.80
2008,09,30,16,26,15.80
2008,09,30,16,27,15.80
2008,09,30,16,28,15.80
2008,09,30,16,29,15.80
2008,09,30,16,30,15.70
2008,09,30,16,31,15.70
2008,09,30,16,32,15.70
2008,09,30,16,33,15.70
2008,09,30,16,34,15.70
2008,09,30,16,35,15.60
2008,09,30,16,36,15.60
2008,09,30,16,37,15.60
2008,09,30,16,38,15.50
2008,09,30,16,39,15.50
2008,09,30,16,40,15.50
2008,09,30,16,41,15.50
2008,09,30,16,42,15.50
2008,09,30,16,43,15.40
2008,09,30,16,44,15.40
2008,09,30,16,45,15.40
2008,09,30,16,46,15.40
2008,09,30,16,47,15.40
2008,09,30,16,48,15.40
2008,09,30,16,49,15.40
2008,09,30,16,50,15.50
2008,09,30,16,51,15.50
2008,09,30,16,52,15.50
2008,09,30,16,53,15.50
2008,09,30,16,54,15.50
2008,09,30,16,55,15.50
2008,09,30,16,56,15.60
2008,09,30,16,57,15.60
2008,09,30,16,58,15.60
2008,09,30,16,59,15.60
2008,09,30,17,00,15.60
2008,09,30,17,01,15.50
2008,09,30,17,02,15.50
2008,09,30,17,03,15.50
2008,09,30,17,04,15.50
2008,09,30,17,05,15.50
2008,09,30,17,06,15.50
2008,09,30,17,07,15.50
2008,09,30,17,08,15.40
2008,09,30,17,09,15.40
2008,09,30,17,10,15.40
2008,09,30,17,11,15.40
2008,09,30,17,12,15.40
2008,09,30,17,13,15.40
2008,09,30,17,14,15.40
2008,09,30,17,15,15.30
2008,09,30,17,16,15.30
2008,09,30,17,17,15.40
2008,09,30,17,18,15.30
2008,09,30,17,19,15.30